Regional Weather Roundup
Issued by NWS

Home | Current Version | Previous Version | Text Only | Print | Product List | Glossary On
Versions: 1 2 3 4 5 6 7 8 9 10 11 12 13 14 15 16 17 18 19 20 21 22 23 24 25 26 27 28 29 30 31 32 33 34 35 36 37 38 39 40 41 42 43 44 45 46 47 48 49 50
000
ASUS44 KOUN 171910
RWROK

WEATHER ROUNDUP FOR OKLAHOMA
NATIONAL WEATHER SERVICE NORMAN OK
200 PM CDT TUE OCT 17 2017

NOTE: "FAIR" INDICATES FEW OR NO CLOUDS BELOW 12,000 FEET WITH NO
      SIGNIFICANT WEATHER AND/OR OBSTRUCTIONS TO VISIBILITY.

OKZ001>007-009>012-014-015-017-172000-
NORTHWEST OKLAHOMA AND THE PANHANDLE

CITY           SKY/WX    TMP DP  RH WIND       PRES   REMARKS
GAGE           SUNNY     77  41  27 S17G25    30.11F
GUYMON         SUNNY     72  42  34 S8        30.10F
ENID/WOODRING  SUNNY     73  46  38 S23       30.15F
$$

OKZ016-021>023-033>039-044-045-172000-
SOUTHWEST OKLAHOMA

CITY           SKY/WX    TMP DP  RH WIND       PRES   REMARKS
LAWTON/REGL    SUNNY     74  42  31 S9G20     30.20F
LAWTON/FT SILL SUNNY     74  47  39 S17       30.18F
FREDERICK      SUNNY     75  40  28 S16       30.16F
CLINTON        SUNNY     72  36  26 S22G28    30.17F
HOBART         SUNNY     75  37  25 S18G25    30.18F
ALTUS AFB      SUNNY     75  36  24 S14       30.17F
$$

OKZ018>020-024>031-172000-
CENTRAL OKLAHOMA

CITY           SKY/WX    TMP DP  RH WIND       PRES   REMARKS
OKLAHOMA CITY  SUNNY     71  41  33 S17G23    30.20F
OKC/WILEY POST SUNNY     72  43  35 SW14      30.19F
OKC/TINKER AFB SUNNY     70  42  35 S13       30.20F
STILLWATER     SUNNY     73  42  32 S15G23    30.19F
GUTHRIE        SUNNY     71  43  36 S14G21    30.19F
$$

OKZ008-013-054>072-172000-
NORTHEAST OKLAHOMA

CITY           SKY/WX    TMP DP  RH WIND       PRES   REMARKS
TULSA          SUNNY     70  46  42 S12G20    30.21F
TULSA/JONES    SUNNY     71  43  36 S10G20    30.22F
PONCA CITY     SUNNY     72  43  35 S9G22     30.17F
BARTLESVILLE   SUNNY     72  45  37 S12       30.20F
MUSKOGEE       SUNNY     71  43  36 SW13      30.24F
$$

OKZ032-040>043-046>053-073>077-172000-
SOUTH CENTRAL/SOUTHEAST OKLAHOMA

CITY           SKY/WX    TMP DP  RH WIND       PRES   REMARKS
ARDMORE/DWNTWN SUNNY     72  37  28 S7        30.22F
MCALESTER      SUNNY     71  45  39 S9        30.25F
$$




USA.gov is the U.S. government's official web portal to all federal, state and local government web resources and services.